Simultaneous Nadir Overpasses (SNOs) Predictions

Prediction of SNOs between GOES-16 and NOAA-21 Satellite Orbit:

Table of predicted SNOs for the next 14.0 days since TLE Epoch: 2/10/2023
Index Date Time (GOES-16) GOES-16 Lat,Lon NOAA-21 Lat,Lon Distance(km) Time Diff (sec)
1 02/12/2023 06:38:20 -0.05, -75.20 0.58, -77.97 315.94 80
2 02/13/2023 06:16:55 -0.05, -75.20 -0.46, -73.44 201.27 80
3 02/14/2023 18:38:49 0.05, -75.21 -0.73, -78.74 401.71 80
4 02/15/2023 18:22:43 0.04, -75.21 0.25, -74.19 115.69 80
5 02/17/2023 06:44:29 -0.04, -75.22 0.89, -79.47 483.57 80
6 02/18/2023 06:23:03 -0.03, -75.23 -0.10, -74.93 34.02 80
7 02/20/2023 18:26:10 0.01, -75.25 -0.08, -75.69 49.78 80
8 02/21/2023 18:10:04 0.02, -75.27 0.92, -71.15 468.64 80
9 02/23/2023 06:31:49 -0.02, -75.29 0.26, -76.41 128.64 80
10 02/24/2023 06:10:24 -0.02, -75.31 -0.80, -71.89 390.15 80
